AKDT,Max TemperatureF,Mean TemperatureF,Min TemperatureF,Max Dew PointF,MeanDew PointF,Min DewpointF,Max Humidity, Mean Humidity, Min Humidity, Max Sea Level PressureIn, Mean Sea Level PressureIn, Min Sea Level PressureIn, Max VisibilityMiles, Mean VisibilityMiles, Min VisibilityMiles, Max Wind SpeedMPH, Mean Wind SpeedMPH, Max Gust SpeedMPH,PrecipitationIn, CloudCover, Events, WindDirDegrees
2013-7-1,56,53,51,52,50,49,99,91,79,29.83,29.73,29.61,10,9,4,13,7,,0.20,7,Rain,32
2013-7-2,63,56,50,52,46,37,98,74,39,29.90,29.72,29.62,10,10,10,17,5,25,0.00,6,Rain,260
2013-7-3,63,56,51,48,44,38,82,64,43,30.03,29.99,29.92,10,10,10,9,5,,0.00,7,Rain,33
2013-7-4,55,52,50,50,47,41,94,81,58,30.07,30.03,30.01,10,9,2,10,5,,0.09,6,Rain,351
2013-7-5,61,56,50,50,47,43,88,70,55,30.09,30.06,30.03,10,10,9,10,5,,0.01,7,Rain,4
2013-7-6,63,56,51,50,48,45,92,72,52,30.04,29.94,29.78,10,10,10,9,6,,0.00,7,Rain,331
2013-7-7,66,58,51,52,50,45,100,81,46,29.75,29.64,29.58,10,10,9,30,4,37,0.00,5,Rain,255
2013-7-8,62,56,49,50,47,45,94,76,55,29.85,29.76,29.69,10,9,3,14,6,,0.00,7,Rain,215
2013-7-9,64,58,53,48,47,46,82,69,53,30.04,29.96,29.86,10,10,10,13,6,,0.00,5,,265
2013-7-10,71,62,54,52,48,44,90,63,43,30.06,30.00,29.94,10,10,8,13,4,,0.00,3,Rain,241
2013-7-11,73,64,57,53,50,46,76,59,44,29.96,29.94,29.91,10,10,10,13,3,,0.00,3,,264
2013-7-12,77,66,55,51,49,46,74,57,35,29.97,29.95,29.91,10,9,2,13,4,,0.00,2,,236
2013-7-13,69,62,57,52,50,46,79,61,45,30.18,30.05,29.98,10,10,10,15,6,,0.00,5,,258
2013-7-14,63,58,54,52,51,49,88,75,59,30.33,30.30,30.20,10,10,10,15,6,,0.00,4,,280
2013-7-15,62,57,53,52,50,48,88,75,68,30.36,30.33,30.27,10,10,10,12,6,,0.00,7,,241
2013-7-16,67,60,55,54,52,50,88,75,60,30.27,30.22,30.14,10,10,8,13,5,,0.00,7,,268
2013-7-17,72,64,58,57,55,52,86,68,60,30.15,30.10,30.07,10,10,7,16,7,,0.00,6,Rain,231
2013-7-18,71,64,58,59,56,54,87,71,61,30.16,30.12,30.09,10,10,10,22,4,,0.00,5,Rain,251
2013-7-19,70,66,63,55,52,49,67,60,50,30.19,30.15,30.12,10,10,10,22,16,31,0.02,2,,227
2013-7-20,70,63,56,55,51,46,94,70,45,30.15,30.12,30.06,10,9,2,15,9,,0.10,4,Rain,218
2013-7-21,78,64,52,48,44,41,75,44,29,30.08,29.99,29.94,10,10,10,16,7,22,0.00,1,Rain,344
2013-7-22,76,66,56,52,47,44,62,49,38,30.09,30.05,29.99,10,10,10,17,9,,0.00,0,,291
2013-7-23,74,65,57,53,49,45,66,53,39,30.14,30.08,30.04,10,10,10,13,5,,0.00,1,,259
2013-7-24,77,67,57,54,51,48,72,56,40,30.05,30.00,29.94,10,10,8,14,5,,0.00,1,,224
2013-7-25,73,66,60,59,56,52,88,74,53,30.07,30.00,29.96,10,9,2,14,5,,0.01,5,Rain,247
2013-7-26,70,64,59,59,57,55,94,83,67,30.31,30.20,30.09,10,10,6,17,4,,0.02,6,,285
2013-7-27,69,64,59,57,55,54,88,76,59,30.37,30.34,30.31,10,10,5,14,5,,0.00,6,,240
2013-7-28,72,65,59,57,56,55,90,75,57,30.31,30.25,30.16,10,10,10,10,5,,0.00,4,,244
2013-7-29,71,64,56,57,56,54,94,76,59,30.20,30.18,30.14,10,10,10,13,4,,0.00,1,,245
2013-7-30,71,62,55,58,55,52,92,73,60,30.22,30.20,30.17,10,10,8,14,6,,0.00,0,,230
2013-7-31,72,64,56,57,55,53,88,73,54,30.22,30.19,30.13,10,10,7,15,5,,0.00,2,,275